Погода в Камышине

Погода в Камышине : погода сейчас, прогноз погоды и архив. Всё, что Вы хотите узнать о погоде в Камышине!

Хотите узнать прогноз погоды в Камышине? Тогда Вам сюда: Погода в Камышине

Поиск расширенной информации на нашем сайте:

Другие новости

Новости СМИ2

Главная страница сайта

Новости сайта

03.07.2017

Напоминаем, что на нашем специализированном сайте Метеоцентр.Азия вы можете получить высокодетализированные автоматические прогнозы погоды по пунктам России, СНГ и мира в авиационном формате (включающие направление и скорость ветра, видимость, явления погоды, количество и форму облачности, нижнюю и верхнюю границу облачности).

Рекомендуем: Навгеотех - геодезическое оборудование: GPS приемники, тахеометры, нивелиры, теодолиты, рулетки..

Погода в Камышине - сегодня

Время (UTC), дата Ветер
(°,м/с) 
Видим.   Явления Облачность Т
(°С)
Тd
(°С)
f(%) Тe
(°С)
Pmin
(гПа)
dP
(гПа)
Po
(мм)
O2
(г/м3)
Тmin Tmax R s Состояние
почвы
03 21.09.17 050 (СВ) 7-11{13}  20000 м    ясно 
+16.1 +8.2 59 +16  1020.8  0.9  755  286  +16.1        сухая 
06 21.09.17 050 (СВ) 7-11{12}  10 км    ясно 
+17 +7.9 55 +17  1021.4  0.7  755  285  +16         
09 21.09.17 040 (СВ) 7-11{12}  10 км    ясно 
+21.8 +6.7 38 +22  1020.9  -0.3  755  281           
12 21.09.17 040 (СВ) 7-12{12}  10 км    ясно 
+26.1 +5.4 27 +26  1020  -0.6  754  277           
15 21.09.17 040 (СВ) 7-11{12}  10 км    1/0 верхняя 
[Ci fib]
+23.9 +5.2 30 +24  1020.2  754  279    +26.2       
18 21.09.17 050 (СВ) 7-11{13}  20000 м    ясно 
+19.7 +8 47 +20  1021.6  1.2  755  283           
21 21.09.17 050 (СВ) 7-13{13}  20000 м    ясно 
+17.3 +7.7 53 +17  1022.6  0.9  756  285           
00 22.09.17 050 (СВ) 9-13{13}  20000 м    3/0 верхняя 
[Ci fib]
+15.2 +7.5 60 +14  1023  0.3  756  287           
03 22.09.17 050 (СВ) 8-12{14}  10 км    5/0 средняя, верхняя 
[Ac lent|Ci fib]
+14 +8 67 +13  1023.8  0.7  757  289  +14        сухая 
06 22.09.17 060 (СВ) 10-15{16}  20000 м    1/0 средняя 
[Ac cast]
+14.8 +7.3 61 +13  1024.8  1.1  758  288  +13.2         
09 22.09.17 060 (СВ) 9-13{15}  20000 м    ясно 
+17.8 +6.7 48 +17  1025.1  0.4  758  286           
12 22.09.17 050 (СВ) 9-14{14}  20000 м    ясно 
+17.5 +5 44 +17  1025.8  0.7  758  286           
15 22.09.17 060 (СВ) 9-14{14}  20000 м    ясно 
+15 +1.1 39 +14  1026.8  0.8  759  290    +18.1       
18 22.09.17 060 (СВ) 9-13{16}  20000 м    ясно 
+12.9 +3.4 52 +11  1028.6  1.6  760  292           
21 22.09.17 060 (СВ) 8-14{15}  н/о    н/о 
+11.8 +5.7 66 +10  1029.3  0.7  761  293           
00 23.09.17 060 (СВ) 9-14{14}  20000 м    ясно 
+10.9 +6.1 72 +9  1029.9  0.4  761  294           
03 23.09.17 060 (СВ) 7-10{14}  20000 м    ясно 
+9.9 +5.9 76 +8  1031.1  1.2  762  295  +9.9        сухая 
06 23.09.17 060 (СВ) 7-10{13}  20000 м    ясно 
+11.9 +5 63 +10  1031.5  0.5  762  294           
09 23.09.17 070 (В) 8-12{12}  20000 м    ясно 
+17.1 +2.9 39 +17  1031.2  0.1  762  289           
12 23.09.17 060 (СВ) 7-11{13}  20000 м    ясно 
+18.2 +1.3 32 +18  1030.6  -0.6  762  288           
15 23.09.17 070 (В) 6{12}  20000 м    ясно 
+16.1 +0.2 34 +16  1030.7  762  290    +18.3       
18 23.09.17 070 (В) 7-10{10}  20000 м    ясно 
+14.3 +1 40 +13  1031.3  0.5  762  292           
21 23.09.17 080 (В) 5{10}  20000 м    ясно 
+11.3 +0.6 48 +10  1032  0.5  763  295           
00 24.09.17 060 (СВ) 20000 м    ясно 
+10 +1.5 55 +9  1031.5  -0.5  762  296           
03 24.09.17 050 (СВ) 20000 м    ясно 
+9.1 +2.7 64 +9  1031.8  0.2  762  297  +8.7        сухая 
Время (UTC), дата Ветер
(°,м/с) 
Видим.   Явления Облачность Т
(°С)
Тd
(°С)
f(%) Тe
(°С)
Pmin
(гПа)
dP
(гПа)
Po
(мм)
O2
(г/м3)
Тmin Tmax R s Состояние
почвы

Для получения пояснительной информации подведите курсор к названию столбца.

ПОГОДА в Камышине - архив

Всё, что Вы хотите узнать о погоде в Камышине - удобно и подробно!

Выберите нужную дату (начиная с 1 января 2015* года) и нажмите кнопку "Найти".
Будут отображены архивные сводки погоды по пункту Камышин, начиная с указанной даты.


Отображать данные в формате CSV (для использования в таблицах Excel)


Внимание! Наш архив погоды предназначен исключительно для личного некоммерческого использования в познавательных целях. Если Вам необходимы официальные справки о состоянии погоды (для производственных, юридических, коммерческих и т.п. целей), обращайтесь в органы Росгидромета.

*Примечание: данная дата относится к архиву по метеостанциям СССР (Россия, СНГ, Балтия).
Архив по метеостанциям Зарубежной Европы и Азии (кроме Китая) хранится 10 дней, по другим регионам земного шара (Китай, Африка, Америка, Австралия, Океания) - 1 день.

Камышин - район местоположения метеостанции


Название, широта, долгота, высота метеостанции:
Камышин 50.1°ш. 45.4°д. 119 м над ур. моря [Российская Федерация]

Дополнительная информация

В oтличие oт бoльшинства пoгoдных сайтoв мы публикуем пoдрoбную метеoинфoрмацию в детальнoм прoфессиoнальнoм фoрмате.

Характеристики температуры и влажнoсти вoздуха измеряются на высoте 2 м в тени вдали oт зданий и деревьев.
Скoрoсть ветра измеряется на высoте 10 м (на урoвне рoста челoвека скoрoсть ветра ниже в 1.5-2 раза). Если метеoстанция нахoдится в гoрoде или в лесу, тo скoрoсть ветра занижена на 2-4 м/с пo сравнению с oткрытым местoм. Скoрoсть ветра над акватoриями крупных рек и oзёр, а также на вершинах хoлмoв на 2-5 м/с выше, чем в oбычных услoвиях.
Атмoсфернoе давление в разных тoчках местнoсти мoжет значительнo oтличаться oт давления на метеoстанции, в зависимoсти oт услoвий рельефа (при пoдъёме на 10 м давление пoнижается примернo на 1 мм рт.ст.).